User: anonymous   Login
Location: Vancouver
(49.2500°N, 123.1330°W)
Time: 18:09:38
(UTC-07:00)
Language:

SO-67 - Orbit

View from above orbital plane
View from above orbital plane
View from above satellite
View from above satellite

Ground track
Ground track

The orbit data is extracted from the following two-line orbital elements,

1 35870U 09049F   15090.75660911  .00017901  00000-0  45168-3 0  9990
2 35870 097.1424 108.8288 0003533 112.4093 303.0673 15.39894582308198
Epoch (UTC): 31 March 2015 18:09:31
Eccentricity: 0.0003533
inclination: 97.1424°
perigee height: 444 km
apogee height: 449 km
right ascension of ascending node: 108.8288°
argument of perigee: 112.4093°
revolutions per day: 15.39894582
mean anomaly at epoch: 303.0673°
orbit number at epoch: 30819

The dashed part of the orbit path shows where the satellite is in the earth's shadow,  

DLR